DW6016 Weather Reports


time (UTC)temp
F
wind
direction
speed
knots
gust
knots
rain 1hr
in
rain 24hr
in
rain mn
in
humidity
%
barometer
mb
20240614132733 44 297 0.0 0.0 0.00 0.00 0.00 99 1024.4
20240614132232 44 296 0.0 0.0 0.00 0.00 0.00 99 1024.1
20240614131731 43 297 0.0 0.0 0.00 0.00 0.00 99 1024.2
20240614131228 43 297 0.0 0.0 0.00 0.00 0.00 99 1024.2
20240614130726 43 297 0.0 0.0 0.00 0.00 0.00 99 1024.4
20240614130224 43 297 0.0 0.0 0.00 0.00 0.00 99 1024.2
20240614125722 42 297 0.0 0.0 0.00 0.00 0.00 99 1024.0
20240614125221 42 297 0.0 0.0 0.00 0.00 0.00 98 1023.9
20240614124711 42 297 0.0 0.0 0.00 0.00 0.00 99 1024.0
20240614124211 42 297 0.0 0.0 0.00 0.00 0.00 98 1023.9
20240614123711 42 297 0.0 0.0 0.00 0.00 0.00 98 1023.9
20240614123209 42 297 0.0 0.0 0.00 0.00 0.00 98 1023.8
20240614122708 42 297 0.0 0.0 0.00 0.00 0.00 98 1023.8
20240614122207 42 297 0.0 0.0 0.00 0.00 0.00 98 1023.6
20240614121705 42 297 0.0 0.0 0.00 0.00 0.00 97 1023.6
20240614121203 42 297 0.0 0.0 0.00 0.00 0.00 97 1023.5
20240614120701 42 297 0.0 0.0 0.00 0.00 0.00 97 1023.6
20240614120200 42 297 0.0 0.0 0.00 0.00 0.00 96 1023.7
20240614115659 43 297 0.0 0.0 0.00 0.00 0.00 96 1023.5
20240614115158 43 297 0.0 0.0 0.00 0.00 0.00 96 1023.5
20240614114656 43 297 0.0 0.0 0.00 0.00 0.00 96 1023.4
20240614114155 43 297 0.0 0.0 0.00 0.00 0.00 95 1023.1
20240614113652 44 297 0.0 0.0 0.00 0.00 0.00 95 1023.1
20240614113150 44 297 0.0 0.0 0.00 0.00 0.00 95 1023.3
20240614112647 44 297 0.0 0.0 0.00 0.00 0.00 95 1023.4
20240614112147 44 297 0.0 0.0 0.00 0.00 0.00 94 1023.2
20240614111645 44 297 0.0 0.0 0.00 0.00 0.00 94 1023.1
20240614111144 44 297 0.0 0.0 0.00 0.00 0.00 93 1023.3
20240614110643 44 297 0.0 0.0 0.00 0.00 0.00 93 1023.2
20240614110141 45 297 0.0 0.0 0.00 0.00 0.00 93 1023.0
20240614105636 45 297 0.0 0.0 0.00 0.00 0.00 94 1023.3
20240614105135 44 297 0.0 0.0 0.00 0.00 0.00 93 1023.3
20240614104635 44 297 0.0 0.0 0.00 0.00 0.00 93 1023.3
20240614104135 45 297 0.0 0.0 0.00 0.00 0.00 92 1023.3
20240614103632 45 297 0.0 0.0 0.00 0.00 0.00 92 1023.2
20240614103130 45 297 0.0 0.0 0.00 0.00 0.00 91 1023.4
20240614102628 45 297 0.0 0.0 0.00 0.00 0.00 91 1023.3
20240614102127 45 297 0.0 0.0 0.00 0.00 0.00 90 1023.1
20240614101623 46 297 0.0 0.0 0.00 0.00 0.00 90 1023.0
20240614101122 46 297 0.0 0.0 0.00 0.00 0.00 89 1023.2
20240614100622 46 297 0.0 0.0 0.00 0.00 0.00 89 1023.0
20240614100121 46 297 0.0 0.0 0.00 0.00 0.00 89 1023.1
20240614095620 46 297 0.0 0.0 0.00 0.00 0.00 89 1023.1
20240614095118 46 297 0.0 0.0 0.00 0.00 0.00 88 1023.2
20240614094618 46 297 0.0 0.0 0.00 0.00 0.00 87 1023.0
20240614094116 47 297 0.0 0.0 0.00 0.00 0.00 87 1023.1
20240614093614 46 297 0.0 0.0 0.00 0.00 0.00 88 1023.1
20240614093112 46 297 0.0 0.0 0.00 0.00 0.00 86 1023.2
20240614092610 47 297 0.0 0.0 0.00 0.00 0.00 86 1023.1
20240614092110 47 297 0.0 0.0 0.00 0.00 0.00 86 1022.9
20240614091609 47 297 0.0 0.0 0.00 0.00 0.00 85 1023.2
20240614091108 47 297 0.0 0.0 0.00 0.00 0.00 85 1023.0
20240614090608 47 297 0.0 0.0 0.00 0.00 0.00 83 1023.1
20240614090107 48 297 0.0 0.0 0.00 0.00 0.00 82 1022.9
20240614085606 48 297 0.0 0.0 0.00 0.00 0.00 82 1022.8
20240614085104 48 297 0.0 0.0 0.00 0.00 0.00 81 1022.9
20240614084602 49 297 0.0 0.0 0.00 0.00 0.00 79 1022.8
20240614084102 50 297 0.0 0.0 0.00 0.00 0.00 78 1022.9
20240614083601 50 297 0.0 0.0 0.00 0.00 0.00 77 1022.7
20240614083100 51 297 0.0 0.0 0.00 0.00 0.00 75 1022.6
20240614082600 51 298 0.0 0.0 0.00 0.00 0.00 74 1022.7
20240614082059 51 298 0.0 0.0 0.00 0.00 0.00 73 1022.5
20240614081557 51 307 0.0 0.0 0.00 0.00 0.00 73 1022.9
20240614081055 52 304 0.0 0.0 0.00 0.00 0.00 72 1022.7
20240614080554 52 307 0.0 0.0 0.00 0.00 0.00 71 1022.7
20240614080053 53 301 0.0 0.0 0.00 0.00 0.00 69 1023.0
20240614075551 53 337 0.9 0.9 0.00 0.00 0.00 69 1022.5
20240614075050 53 337 0.0 0.9 0.00 0.00 0.00 69 1022.7
20240614074548 53 299 0.0 0.0 0.00 0.00 0.00 68 1022.4
20240614074047 53 309 0.0 0.9 0.00 0.00 0.00 67 1022.5
20240614073545 54 303 0.0 0.0 0.00 0.00 0.00 66 1022.4
20240614073044 54 291 0.0 0.9 0.00 0.00 0.00 65 1022.5
20240614072543 53 306 0.0 0.9 0.00 0.00 0.00 65 1022.4
20240614072042 53 318 0.0 0.0 0.00 0.00 0.00 65 1022.5
20240614071538 53 305 0.0 0.0 0.00 0.00 0.00 65 1022.3
20240614071038 54 309 0.9 0.9 0.00 0.00 0.00 64 1022.3
20240614070536 53 302 0.0 0.0 0.00 0.00 0.00 63 1022.2
20240614070036 53 304 0.0 0.0 0.00 0.00 0.00 63 1022.3
20240614065535 53 304 0.0 0.9 0.00 0.00 0.00 63 1022.2
20240614065033 53 304 0.0 0.0 0.00 0.00 0.00 63 1022.0
20240614064532 53 304 0.0 0.0 0.00 0.00 0.00 61 1021.9
20240614064031 53 304 0.9 0.9 0.00 0.00 0.00 61 1021.8
20240614063530 52 320 0.0 0.9 0.00 0.00 0.00 60 1021.5
20240614063029 52 303 0.0 0.0 0.00 0.00 0.00 59 1021.5
20240614062529 53 305 0.0 0.0 0.00 0.00 0.00 60 1021.4
20240614062029 53 303 0.0 0.0 0.00 0.00 0.00 59 1021.5
20240614061526 53 303 0.0 0.0 0.00 0.00 0.00 58 1021.3
20240614061024 53 299 0.0 0.0 0.00 0.00 0.00 58 1021.2
20240614060523 53 305 0.0 0.0 0.00 0.00 0.00 56 1021.2
20240614060021 54 305 0.0 0.0 0.00 0.00 0.00 55 1021.0
20240614055519 55 305 0.0 0.0 0.00 0.00 0.00 53 1021.0
20240614055018 56 305 0.0 0.0 0.00 0.00 0.00 52 1021.0
20240614054517 57 305 0.0 0.0 0.00 0.00 0.00 50 1021.1
20240614054017 57 305 0.0 0.0 0.00 0.00 0.00 50 1020.9
20240614053517 57 305 0.0 0.0 0.00 0.00 0.00 49 1020.8
20240614053014 57 300 0.0 0.0 0.00 0.00 0.00 56 1020.9
20240614052513 56 300 0.0 0.0 0.00 0.00 0.00 58 1020.7
20240614052011 56 300 0.0 0.0 0.00 0.00 0.00 59 1020.6
20240614051507 55 300 0.0 0.0 0.00 0.00 0.00 58 1020.5
20240614051007 56 300 0.0 0.0 0.00 0.00 0.00 61 1020.6
20240614050506 56 300 0.0 0.0 0.00 0.00 0.00 62 1020.7
20240614050004 56 300 0.0 0.0 0.00 0.00 0.00 60 1020.6
20240614045502 56 300 0.0 0.0 0.00 0.00 0.00 59 1020.4
20240614045001 57 300 0.0 0.0 0.00 0.00 0.00 58 1020.2
20240614044457 57 300 0.0 0.0 0.00 0.00 0.00 58 1020.2
20240614043955 58 300 0.0 0.0 0.00 0.00 0.00 57 1020.2
20240614043453 58 300 0.0 0.0 0.00 0.00 0.00 55 1020.0
20240614042953 59 300 0.0 0.0 0.00 0.00 0.00 54 1020.1
20240614042452 59 300 0.0 0.0 0.00 0.00 0.00 54 1019.9
20240614041950 60 309 0.0 0.0 0.00 0.00 0.00 52 1019.9
20240614041447 60 311 0.0 0.0 0.00 0.00 0.00 51 1019.8
20240614040945 60 302 0.0 0.0 0.00 0.00 0.00 50 1019.9
20240614040445 61 302 0.0 0.0 0.00 0.00 0.00 49 1019.8
20240614035944 62 298 0.0 0.0 0.00 0.00 0.00 49 1020.0
20240614035444 62 304 0.0 0.0 0.00 0.00 0.00 48 1019.8
20240614034943 62 335 0.9 0.9 0.00 0.00 0.00 48 1019.7
20240614034442 62 304 0.0 0.9 0.00 0.00 0.00 47 1019.8
20240614033941 63 306 0.0 0.9 0.00 0.00 0.00 48 1019.8
20240614033440 63 313 0.0 0.9 0.00 0.00 0.00 46 1020.0
20240614032939 63 295 0.9 1.7 0.00 0.00 0.00 45 1019.7
20240614032437 64 279 0.0 0.9 0.00 0.00 0.00 46 1019.6
20240614031936 64 140 1.7 2.6 0.00 0.00 0.00 45 1019.3
20240614031435 65 309 0.9 0.9 0.00 0.00 0.00 46 1019.6
20240614030934 65 286 0.9 1.7 0.00 0.00 0.00 44 1019.6
20240614030432 66 169 1.7 1.7 0.00 0.00 0.00 49 1019.3
20240614025930 66 309 1.7 1.7 0.00 0.00 0.00 52 1019.4
20240614025429 66 322 1.7 1.7 0.00 0.00 0.00 52 1019.4
20240614024927 65 301 0.9 0.9 0.00 0.00 0.00 55 1019.4
20240614024426 65 306 0.9 0.9 0.00 0.00 0.00 55 1019.5
20240614023925 65 296 0.9 0.9 0.00 0.00 0.00 55 1019.3
20240614023424 65 299 0.9 0.9 0.00 0.00 0.00 54 1019.3
20240614022922 66 155 1.7 2.6 0.00 0.00 0.00 54 1019.3
20240614022421 66 300 0.0 0.0 0.00 0.00 0.00 56 1019.3
20240614021920 66 337 1.7 2.6 0.00 0.00 0.00 54 1019.2
20240614021419 66 271 1.7 1.7 0.00 0.00 0.00 53 1019.0
20240614020917 66 305 0.9 1.7 0.00 0.00 0.00 54 1019.0
20240614020415 67 287 0.9 1.7 0.00 0.00 0.00 55 1018.9
20240614015913 67 304 0.0 0.9 0.00 0.00 0.00 55 1018.9
20240614015412 67 301 0.0 0.9 0.00 0.00 0.00 55 1018.9
20240614014911 67 60 0.9 1.7 0.00 0.00 0.00 55 1018.6
20240614014408 68 293 0.9 0.9 0.00 0.00 0.00 55 1018.5
20240614013906 68 307 0.9 0.9 0.00 0.00 0.00 54 1018.2
20240614013405 68 56 1.7 2.6 0.00 0.00 0.00 54 1018.3
20240614012904 68 314 0.9 0.9 0.00 0.00 0.00 54 1018.5
20240614012403 68 212 1.7 2.6 0.00 0.00 0.00 53 1018.1
20240614011902 68 297 1.7 2.6 0.00 0.00 0.00 53 1018.3
20240614011400 69 277 0.0 0.9 0.00 0.00 0.00 53 1018.0
20240614010859 69 296 0.9 0.9 0.00 0.00 0.00 52 1018.1
20240614010355 69 69 0.9 2.6 0.00 0.00 0.00 51 1018.1
20240614005852 69 282 2.6 4.3 0.00 0.00 0.00 49 1017.9
20240614005352 69 303 0.9 1.7 0.00 0.00 0.00 50 1018.0
20240614004851 69 294 0.0 0.0 0.00 0.00 0.00 49 1017.7
20240614004349 70 285 1.7 1.7 0.00 0.00 0.00 47 1018.0
20240614003848 70 319 0.0 0.9 0.00 0.00 0.00 47 1017.9
20240614003347 70 262 0.9 0.9 0.00 0.00 0.00 49 1017.7
20240614002846 70 336 2.6 2.6 0.00 0.00 0.00 48 1017.8
20240614002344 70 166 2.6 2.6 0.00 0.00 0.00 50 1017.9
20240614001841 70 313 2.6 4.3 0.00 0.00 0.00 49 1017.7
20240614001340 71 95 2.6 4.3 0.00 0.00 0.00 47 1017.5
20240614000839 71 332 0.9 1.7 0.00 0.00 0.00 48 1017.6
20240614000335 71 296 1.7 1.7 0.00 0.00 0.00 47 1017.6
20240613235835 70 274 0.9 0.9 0.00 0.00 0.00 47 1017.5
20240613235333 71 290 1.7 1.7 0.00 0.00 0.00 46 1017.5
20240613234832 71 304 0.9 0.9 0.00 0.00 0.00 46 1017.3
20240613234332 71 281 1.7 2.6 0.00 0.00 0.00 48 1017.3
20240613233830 72 306 0.9 0.9 0.00 0.00 0.00 44 1017.5
20240613233326 72 283 0.9 2.6 0.00 0.00 0.00 44 1017.4
20240613232825 73 254 0.9 1.7 0.00 0.00 0.00 44 1017.3
20240613232324 72 296 0.9 1.7 0.00 0.00 0.00 43 1017.4
20240613231823 73 332 1.7 2.6 0.00 0.00 0.00 42 1017.5
20240613231319 73 273 1.7 2.6 0.00 0.00 0.00 42 1017.4
20240613230819 73 248 0.9 0.9 0.00 0.00 0.00 45 1017.3
20240613230317 73 290 0.9 0.9 0.00 0.00 0.00 42 1017.3
20240613225812 73 215 0.9 1.7 0.00 0.00 0.00 43 1017.3
20240613225308 72 319 0.9 0.9 0.00 0.00 0.00 43 1017.2
20240613224803 72 307 1.7 2.6 0.00 0.00 0.00 42 1017.6
20240613224254 73 198 0.9 0.9 0.00 0.00 0.00 42 1017.5
20240613223753 73 306 2.6 2.6 0.00 0.00 0.00 43 1017.3
20240613223252 73 305 0.9 0.9 0.00 0.00 0.00 43 1017.5
20240613222751 73 283 0.9 0.9 0.00 0.00 0.00 41 1017.6
20240613222250 72 305 1.7 1.7 0.00 0.00 0.00 44 1017.5
20240613221749 72 311 0.0 0.9 0.00 0.00 0.00 44 1017.5
20240613221248 72 277 1.7 2.6 0.00 0.00 0.00 43 1017.7
20240613220746 72 292 0.9 1.7 0.00 0.00 0.00 44 1017.6
20240613220244 72 292 1.7 1.7 0.00 0.00 0.00 43 1017.7
20240613215743 72 182 0.9 1.7 0.00 0.00 0.00 44 1017.6
20240613215241 72 290 2.6 4.3 0.00 0.00 0.00 43 1017.8
20240613214740 72 282 2.6 5.2 0.00 0.00 0.00 47 1018.0
20240613214239 72 306 1.7 1.7 0.00 0.00 0.00 42 1017.8
20240613213737 72 17 1.7 1.7 0.00 0.00 0.00 46 1017.9
20240613213236 71 279 0.9 1.7 0.00 0.00 0.00 47 1017.9
20240613212736 71 304 1.7 1.7 0.00 0.00 0.00 47 1018.1
20240613212235 71 305 1.7 1.7 0.00 0.00 0.00 48 1018.0
20240613211735 71 173 2.6 2.6 0.00 0.00 0.00 47 1018.2
20240613211232 71 294 1.7 1.7 0.00 0.00 0.00 46 1018.3
20240613210731 72 278 2.6 4.3 0.00 0.00 0.00 47 1018.3
20240613210231 71 305 0.0 0.9 0.00 0.00 0.00 46 1018.2
20240613205728 70 5 0.9 1.7 0.00 0.00 0.00 47 1018.2
20240613205226 70 278 2.6 2.6 0.00 0.00 0.00 47 1018.5
20240613204724 70 305 2.6 2.6 0.00 0.00 0.00 46 1018.4
20240613204223 71 156 2.6 2.6 0.00 0.00 0.00 47 1018.4
20240613203722 71 317 0.9 0.9 0.00 0.00 0.00 45 1018.5
20240613203220 71 300 0.9 1.7 0.00 0.00 0.00 47 1018.3
20240613202718 71 296 0.9 1.7 0.00 0.00 0.00 49 1018.6
20240613202217 71 326 2.6 2.6 0.00 0.00 0.00 48 1018.7
20240613201716 70 192 3.5 4.3 0.00 0.00 0.00 47 1018.7
20240613201216 70 315 0.9 0.9 0.00 0.00 0.00 48 1018.6
20240613200714 71 236 0.9 0.9 0.00 0.00 0.00 50 1018.4
20240613200215 70 293 0.9 1.7 0.00 0.00 0.00 48 1018.7
20240613195713 70 183 0.9 0.9 0.00 0.00 0.00 51 1018.7
20240613195211 70 205 2.6 2.6 0.00 0.00 0.00 50 1018.7
20240613194709 71 80 3.5 4.3 0.00 0.00 0.00 48 1019.1
20240613194208 69 62 0.9 1.7 0.00 0.00 0.00 48 1018.9
20240613193707 69 106 2.6 2.6 0.00 0.00 0.00 49 1018.8
20240613193207 69 212 0.9 1.7 0.00 0.00 0.00 51 1018.9
20240613192705 69 176 0.0 0.9 0.00 0.00 0.00 53 1019.1
20240613192204 69 267 0.9 0.9 0.00 0.00 0.00 52 1018.8
20240613191703 68 287 0.0 0.9 0.00 0.00 0.00 54 1019.1
20240613191201 68 316 0.0 0.9 0.00 0.00 0.00 55 1019.1
20240613190701 68 330 0.9 1.7 0.00 0.00 0.00 52 1019.0
20240613190159 67 276 1.7 1.7 0.00 0.00 0.00 53 1019.0
20240613185658 68 275 4.3 5.2 0.00 0.00 0.00 51 1018.9
20240613185157 67 292 0.0 0.0 0.00 0.00 0.00 54 1018.9
20240613184657 67 280 1.7 1.7 0.00 0.00 0.00 52 1019.1
20240613184155 66 290 0.9 1.7 0.00 0.00 0.00 53 1018.9
20240613183653 66 314 0.0 0.9 0.00 0.00 0.00 58 1019.0
20240613183153 66 297 0.9 0.9 0.00 0.00 0.00 56 1019.1
20240613182651 65 310 0.0 0.9 0.00 0.00 0.00 57 1019.2
20240613182150 64 305 1.7 2.6 0.00 0.00 0.00 56 1019.2
20240613181650 64 356 0.0 0.9 0.00 0.00 0.00 62 1019.1
20240613181150 64 303 1.7 1.7 0.00 0.00 0.00 59 1019.3
20240613180647 64 308 0.9 0.9 0.00 0.00 0.00 58 1019.4
20240613180145 64 290 3.5 5.2 0.00 0.00 0.00 57 1019.2
20240613175643 64 277 4.3 6.1 0.00 0.00 0.00 56 1019.2
20240613175142 63 308 2.6 4.3 0.00 0.00 0.00 58 1019.2
20240613174641 65 301 3.5 4.3 0.00 0.00 0.00 56 1019.3
20240613174139 64 101 1.7 2.6 0.00 0.00 0.00 58 1019.3
20240613173639 65 294 0.0 0.9 0.00 0.00 0.00 58 1019.2
20240613173137 64 47 0.9 1.7 0.00 0.00 0.00 59 1019.4
20240613172636 62 301 1.7 2.6 0.00 0.00 0.00 61 1019.2
20240613172135 64 289 3.5 4.3 0.00 0.00 0.00 58 1019.5
20240613171633 64 306 2.6 2.6 0.00 0.00 0.00 59 1019.4
20240613171132 65 307 1.7 1.7 0.00 0.00 0.00 58 1019.5
20240613170631 64 291 0.9 0.9 0.00 0.00 0.00 60 1019.4
20240613170130 63 295 0.9 0.9 0.00 0.00 0.00 61 1019.5
20240613165628 63 297 0.0 0.9 0.00 0.00 0.00 61 1019.4
20240613165127 62 301 0.0 0.9 0.00 0.00 0.00 62 1019.7
20240613164626 63 306 0.0 0.0 0.00 0.00 0.00 62 1019.4
20240613164126 62 309 0.0 0.0 0.00 0.00 0.00 63 1019.4
20240613163622 61 318 1.7 1.7 0.00 0.00 0.00 64 1019.5
20240613163122 61 328 0.9 0.9 0.00 0.00 0.00 63 1019.6
20240613162615 61 307 0.9 0.9 0.00 0.00 0.00 65 1019.7
20240613162114 61 313 0.0 0.9 0.00 0.00 0.00 66 1019.8
20240613161614 60 305 0.9 1.7 0.00 0.00 0.00 66 1019.8
20240613161113 59 296 2.6 4.3 0.00 0.00 0.00 68 1019.8
20240613160612 57 313 1.7 1.7 0.00 0.00 0.00 70 1019.8
20240613160110 59 297 2.6 2.6 0.00 0.00 0.00 68 1019.9
20240613155609 59 324 0.0 0.9 0.00 0.00 0.00 67 1019.8
20240613155108 59 308 2.6 2.6 0.00 0.00 0.00 68 1019.8
20240613154607 58 291 0.9 0.9 0.00 0.00 0.00 68 1019.7
20240613154105 59 282 1.7 1.7 0.00 0.00 0.00 66 1019.6
20240613153604 59 309 0.0 0.9 0.00 0.00 0.00 66 1019.8
20240613153103 59 17 0.9 1.7 0.00 0.00 0.00 67 1019.8
20240613152601 58 297 0.9 1.7 0.00 0.00 0.00 68 1019.9
20240613152100 58 320 0.9 0.9 0.00 0.00 0.00 69 1019.7
20240613151559 57 328 0.0 0.0 0.00 0.00 0.00 70 1019.8
20240613151057 57 338 0.0 0.9 0.00 0.00 0.00 72 1019.8
20240613150557 57 305 2.6 2.6 0.00 0.00 0.00 70 1019.8
20240613150055 57 307 1.7 1.7 0.00 0.00 0.00 70 1019.9
20240613145554 58 315 0.0 0.0 0.00 0.00 0.00 71 1019.9
20240613145051 57 16 0.9 0.9 0.00 0.00 0.00 69 1019.9
20240613144551 57 334 0.0 0.9 0.00 0.00 0.00 71 1019.9
20240613144050 57 46 1.7 2.6 0.00 0.00 0.00 70 1020.2
20240613143549 56 304 0.9 1.7 0.00 0.00 0.00 72 1020.2
20240613143048 57 311 1.7 1.7 0.00 0.00 0.00 73 1020.0
20240613142547 57 358 0.9 0.9 0.00 0.00 0.00 70 1019.8
20240613142045 57 316 0.0 0.0 0.00 0.00 0.00 72 1019.8
20240613141543 56 314 0.9 0.9 0.00 0.00 0.00 73 1019.6
20240613141041 56 338 0.0 0.9 0.00 0.00 0.00 72 1019.7
20240613140540 55 326 0.0 0.0 0.00 0.00 0.00 74 1019.6
20240613140038 54 309 0.0 0.0 0.00 0.00 0.00 77 1019.6
20240613135537 54 9 0.0 0.0 0.00 0.00 0.00 77 1019.8
20240613135037 53 315 0.0 0.0 0.00 0.00 0.00 78 1019.9
20240613134535 52 326 0.0 0.0 0.00 0.00 0.00 81 1019.6
20240613134034 51 332 0.9 0.9 0.00 0.00 0.00 83 1019.6
20240613133531 50 322 0.9 0.9 0.00 0.00 0.00 85 1019.7